EN

Hourly Weather Bolshoe Ermakovo

Today, 24 October, Saturday

Time Temperature Precipitation Wind Pressure Humidity
00:00 +6°C° 0.1 mm 4 mps 744 mmHg 96%
01:00 +6°C° 0.1 mm 4 mps 744 mmHg 96%
02:00 +7°C° 0.1 mm 4 mps 743 mmHg 96%
03:00 +7°C° 0.1 mm 4 mps 743 mmHg 96%
04:00 +7°C° 0.2 mm 5 mps 742 mmHg 96%
05:00 +8°C° 0.2 mm 5 mps 742 mmHg 95%
06:00 +8°C° 0.2 mm 5 mps 741 mmHg 95%
07:00 +9°C° 0 mm 6 mps 741 mmHg 92%
08:00 +10°C° 0 mm 6 mps 742 mmHg 89%
09:00 +10°C° 0 mm 6 mps 742 mmHg 86%
10:00 +10°C° 0.2 mm 6 mps 742 mmHg 84%
11:00 +10°C° 0.2 mm 6 mps 742 mmHg 82%
12:00 +10°C° 0.2 mm 6 mps 742 mmHg 80%
13:00 +10°C° 0.1 mm 5 mps 743 mmHg 79%
14:00 +10°C° 0.1 mm 5 mps 744 mmHg 79%
15:00 +11°C° 0.1 mm 4 mps 744 mmHg 78%
16:00 +10°C° 0.1 mm 4 mps 744 mmHg 79%
17:00 +10°C° 0.1 mm 4 mps 745 mmHg 79%
18:00 +10°C° 0.1 mm 4 mps 745 mmHg 80%
19:00 +10°C° 0.1 mm 4 mps 745 mmHg 81%
20:00 +8°C° 0.1 mm 4 mps 746 mmHg 82%
21:00 +8°C° 0.1 mm 4 mps 746 mmHg 84%
22:00 +9°C° 0 mm 3 mps 746 mmHg 86%
23:00 +8°C° 0 mm 3 mps 746 mmHg 88%

Tomorrow, 25 October, Sunday

Time Temperature Precipitation Wind Pressure Humidity
00:00 +8°C° 0 mm 3 mps 747 mmHg 90%
01:00 +7°C° 0 mm 3 mps 747 mmHg 90%
02:00 +7°C° 0 mm 2 mps 747 mmHg 90%
03:00 +7°C° 0 mm 2 mps 747 mmHg 90%
04:00 +7°C° 0 mm 2 mps 747 mmHg 89%
05:00 +7°C° 0 mm 2 mps 747 mmHg 88%
06:00 +7°C° 0 mm 2 mps 747 mmHg 87%
07:00 +7°C° 0 mm 2 mps 747 mmHg 84%
08:00 +8°C° 0 mm 2 mps 746 mmHg 81%
09:00 +8°C° 0 mm 2 mps 746 mmHg 79%
10:00 +8°C° 0 mm 2 mps 746 mmHg 77%
11:00 +8°C° 0 mm 2 mps 746 mmHg 75%
12:00 +9°C° 0 mm 2 mps 745 mmHg 74%
13:00 +8°C° 0.4 mm 2 mps 745 mmHg 78%
14:00 +8°C° 0.4 mm 2 mps 745 mmHg 82%
15:00 +8°C° 0.4 mm 1 mps 745 mmHg 86%
16:00 +7°C° 0.4 mm 2 mps 745 mmHg 87%
17:00 +7°C° 0.4 mm 2 mps 745 mmHg 89%
18:00 +7°C° 0.4 mm 3 mps 745 mmHg 90%
19:00 +5°C° 0.1 mm 3 mps 745 mmHg 89%
20:00 +5°C° 0.1 mm 4 mps 746 mmHg 87%
21:00 +5°C° 0.1 mm 4 mps 746 mmHg 86%
22:00 +4°C° 0 mm 4 mps 746 mmHg 85%
23:00 +4°C° 0 mm 4 mps 747 mmHg 84%

Day after tomorrow, 26 October, Monday

Time Temperature Precipitation Wind Pressure Humidity
00:00 +3°C° 0 mm 4 mps 747 mmHg 83%
01:00 +1°C° 0 mm 4 mps 748 mmHg 83%
02:00 +1°C° 0 mm 5 mps 748 mmHg 83%
03:00 0°C° 0 mm 5 mps 749 mmHg 83%
04:00 0°C° 0 mm 5 mps 749 mmHg 83%
05:00 -1°C° 0 mm 5 mps 750 mmHg 84%
06:00 -1°C° 0 mm 5 mps 750 mmHg 85%
07:00 0°C° 0 mm 5 mps 751 mmHg 80%
08:00 0°C° 0 mm 5 mps 751 mmHg 76%
09:00 +1°C° 0 mm 5 mps 752 mmHg 72%
10:00 +1°C° 0 mm 5 mps 752 mmHg 70%
11:00 +2°C° 0 mm 6 mps 752 mmHg 67%
12:00 +2°C° 0 mm 6 mps 752 mmHg 65%
13:00 +2°C° 0 mm 6 mps 752 mmHg 67%
14:00 +1°C° 0 mm 6 mps 753 mmHg 70%
15:00 +1°C° 0 mm 6 mps 753 mmHg 73%
16:00 -1°C° 0 mm 6 mps 753 mmHg 73%
17:00 -1°C° 0 mm 6 mps 754 mmHg 73%
18:00 -1°C° 0 mm 5 mps 755 mmHg 73%
19:00 -1°C° 0 mm 5 mps 755 mmHg 75%
20:00 -2°C° 0 mm 4 mps 756 mmHg 77%
21:00 -2°C° 0 mm 4 mps 757 mmHg 79%
22:00 -3°C° 0 mm 4 mps 757 mmHg 80%
23:00 -3°C° 0 mm 4 mps 757 mmHg 80%

, 27 October, Tuesday

Time Temperature Precipitation Wind Pressure Humidity
00:00 -2°C° 0 mm 3 mps 758 mmHg 81%
01:00 -2°C° 0 mm 3 mps 758 mmHg 80%
02:00 -4°C° 0 mm 3 mps 759 mmHg 79%
03:00 -4°C° 0 mm 3 mps 759 mmHg 79%
04:00 -4°C° 0 mm 3 mps 759 mmHg 79%
05:00 -4°C° 0 mm 3 mps 760 mmHg 80%
06:00 -4°C° 0 mm 3 mps 760 mmHg 80%
07:00 -3°C° 0 mm 4 mps 760 mmHg 78%
08:00 -3°C° 0 mm 4 mps 761 mmHg 75%
09:00 -2°C° 0 mm 4 mps 761 mmHg 73%
10:00 -2°C° 0 mm 4 mps 761 mmHg 70%
11:00 -1°C° 0 mm 4 mps 762 mmHg 68%
12:00 0°C° 0 mm 4 mps 762 mmHg 65%
13:00 0°C° 0 mm 4 mps 762 mmHg 66%
14:00 +1°C° 0 mm 3 mps 762 mmHg 66%
15:00 +1°C° 0 mm 3 mps 762 mmHg 67%
16:00 0°C° 0 mm 3 mps 763 mmHg 72%
17:00 -1°C° 0 mm 2 mps 763 mmHg 77%
18:00 -2°C° 0 mm 2 mps 763 mmHg 82%
19:00 -2°C° 0 mm 2 mps 764 mmHg 83%
20:00 0°C° 0 mm 1 mps 764 mmHg 83%
21:00 -1°C° 0 mm 1 mps 764 mmHg 83%
22:00 -1°C° 0 mm 1 mps 764 mmHg 83%
23:00 -1°C° 0 mm 1 mps 764 mmHg 83%

27 October, Tuesday

Time Temperature Precipitation Wind Pressure Humidity
00:00 -2°C° 0 mm 3 mps 758 mmHg 81%
01:00 -2°C° 0 mm 3 mps 758 mmHg 80%
02:00 -4°C° 0 mm 3 mps 759 mmHg 79%
03:00 -4°C° 0 mm 3 mps 759 mmHg 79%
04:00 -4°C° 0 mm 3 mps 759 mmHg 79%
05:00 -4°C° 0 mm 3 mps 760 mmHg 80%
06:00 -4°C° 0 mm 3 mps 760 mmHg 80%
07:00 -3°C° 0 mm 4 mps 760 mmHg 78%
08:00 -3°C° 0 mm 4 mps 761 mmHg 75%
09:00 -2°C° 0 mm 4 mps 761 mmHg 73%
10:00 -2°C° 0 mm 4 mps 761 mmHg 70%
11:00 -1°C° 0 mm 4 mps 762 mmHg 68%
12:00 0°C° 0 mm 4 mps 762 mmHg 65%
13:00 0°C° 0 mm 4 mps 762 mmHg 66%
14:00 +1°C° 0 mm 3 mps 762 mmHg 66%
15:00 +1°C° 0 mm 3 mps 762 mmHg 67%
16:00 0°C° 0 mm 3 mps 763 mmHg 72%
17:00 -1°C° 0 mm 2 mps 763 mmHg 77%
18:00 -2°C° 0 mm 2 mps 763 mmHg 82%
19:00 -2°C° 0 mm 2 mps 764 mmHg 83%
20:00 0°C° 0 mm 1 mps 764 mmHg 83%
21:00 -1°C° 0 mm 1 mps 764 mmHg 83%
22:00 -1°C° 0 mm 1 mps 764 mmHg 83%
23:00 -1°C° 0 mm 1 mps 764 mmHg 83%

28 October, Wednesday

Time Temperature Precipitation Wind Pressure Humidity
00:00 -1°C° 0 mm 1 mps 764 mmHg 82%
01:00 -2°C° 0 mm 0 mps 764 mmHg 82%
02:00 -2°C° 0 mm 0 mps 765 mmHg 82%
03:00 -2°C° 0 mm 0 mps 765 mmHg 82%
04:00 -2°C° 0 mm 0 mps 765 mmHg 82%
05:00 -2°C° 0 mm 0 mps 765 mmHg 81%
06:00 -2°C° 0 mm 0 mps 765 mmHg 81%
07:00 -1°C° 0 mm 0 mps 765 mmHg 77%
08:00 +1°C° 0 mm 1 mps 765 mmHg 72%
09:00 +2°C° 0 mm 1 mps 766 mmHg 67%
10:00 +3°C° 0 mm 1 mps 766 mmHg 63%
11:00 +4°C° 0 mm 1 mps 766 mmHg 59%
12:00 +4°C° 0 mm 2 mps 766 mmHg 55%
13:00 +5°C° 0 mm 1 mps 766 mmHg 57%
14:00 +4°C° 0 mm 1 mps 766 mmHg 60%
15:00 +4°C° 0 mm 1 mps 766 mmHg 62%
16:00 +2°C° 0 mm 2 mps 766 mmHg 65%
17:00 +1°C° 0 mm 2 mps 766 mmHg 68%
18:00 -1°C° 0 mm 2 mps 766 mmHg 72%
19:00 -1°C° 0 mm 2 mps 766 mmHg 72%
20:00 -1°C° 0 mm 2 mps 766 mmHg 73%
21:00 -1°C° 0 mm 2 mps 766 mmHg 73%
22:00 -1°C° 0 mm 2 mps 766 mmHg 73%
23:00 -1°C° 0 mm 2 mps 766 mmHg 74%

29 October, Thursday

Time Temperature Precipitation Wind Pressure Humidity
00:00 -1°C° 0 mm 2 mps 766 mmHg 74%
01:00 -1°C° 0 mm 2 mps 766 mmHg 74%
02:00 -1°C° 0 mm 2 mps 766 mmHg 74%
03:00 -2°C° 0 mm 2 mps 766 mmHg 74%
04:00 -2°C° 0 mm 2 mps 766 mmHg 74%
05:00 -2°C° 0 mm 2 mps 766 mmHg 75%
06:00 -2°C° 0 mm 3 mps 766 mmHg 75%
07:00 -1°C° 0 mm 3 mps 766 mmHg 71%
08:00 0°C° 0 mm 3 mps 766 mmHg 67%
09:00 +1°C° 0 mm 3 mps 766 mmHg 63%
10:00 +2°C° 0 mm 3 mps 766 mmHg 61%
11:00 +3°C° 0 mm 3 mps 766 mmHg 58%
12:00 +4°C° 0 mm 3 mps 766 mmHg 55%
13:00 +4°C° 0 mm 3 mps 766 mmHg 57%
14:00 +4°C° 0 mm 3 mps 766 mmHg 59%
15:00 +5°C° 0 mm 2 mps 766 mmHg 61%
16:00 +4°C° 0 mm 2 mps 766 mmHg 65%
17:00 +3°C° 0 mm 2 mps 766 mmHg 68%
18:00 +1°C° 0 mm 3 mps 766 mmHg 72%
19:00 +1°C° 0 mm 3 mps 765 mmHg 72%
20:00 0°C° 0 mm 3 mps 765 mmHg 73%
21:00 0°C° 0 mm 3 mps 765 mmHg 73%
22:00 0°C° 0 mm 3 mps 765 mmHg 74%
23:00 0°C° 0 mm 3 mps 765 mmHg 74%
Show more